Weather Roundup
Issued by NWS Chicago, IL

Home | Current Version | Previous Version | Graphics & Text | Print | Product List | Glossary On
Versions: 1 2 3 4 5 6 7 8 9 10 11 12 13 14 15 16 17 18 19 20 21 22 23 24 25 26 27 28 29 30 31 32 33 34 35 36 37 38 39 40 41 42 43 44 45 46 47 48 49 50
000
NZUS59 KLOT 251604
HRRLOT

CHICAGO AREA WEATHER ROUNDUP
NATIONAL WEATHER SERVICE CHICAGO/ROMEOVILLE IL
1100 AM CDT TUE JUL 25 2017

NOTE: "FAIR" INDICATES FEW OR NO CLOUDS BELOW 12,000 FEET WITH NO
SIGNIFICANT WEATHER AND/OR OBSTRUCTIONS TO VISIBILITY.

* THESE STATIONS ARE NOT UNDER NWS QUALITY CONTROL. THEY ALSO MAY NOT
  REPORT WEATHER SUCH AS PRECIPITATION OR FOG.

ILZ005-006-012>014-019>023-251700-
NORTHEAST ILLINOIS

CITY           SKY/WX    TMP DP  RH WIND       PRES   REMARKS
OHARE          MOSUNNY   76  54  46 S13       30.20S
MIDWAY         MOSUNNY   77  56  48 S10       30.19F
AURORA         SUNNY     75  60  59 S13       30.22R
LANSING*       SUNNY     74  57  56 S9G16     30.21F
JOLIET*        SUNNY     75  59  57 SE13      30.20F
WAUKEGAN       SUNNY     74  60  61 S10       30.20S
DUPAGE AIRPORT SUNNY     74  59  59 SE12      30.20S
WHEELING       SUNNY     75  55  49 S13       30.21S
MORRIS*        SUNNY     73  59  60 SE12G17   30.19S
LEWIS AIRPORT* SUNNY     74  56  53 SE13G18   30.21S
NORTHERLY ISL    N/A     76  59  55 SE7         N/A
$$

WIZ051-052-058>065-066-070>072-251700-
SOUTHEAST WISCONSIN

CITY           SKY/WX    TMP DP  RH WIND       PRES   REMARKS
MILWAUKEE      MOSUNNY   76  60  57 S17       30.19F
KENOSHA*       PTSUNNY   73  60  63 S10       30.21S
RACINE*        SUNNY     74  61  63 SE14G23   30.22S
WAUKESHA       PTSUNNY   72  57  60 S9        30.20S
$$

INZ001>003-010>013-019-020-251700-
NORTHWEST INDIANA

CITY           SKY/WX    TMP DP  RH WIND       PRES   REMARKS
GARY*          MOSUNNY   75  55  50 SE10      30.21F
MICHIGAN CITY* NOT AVBL
RENSSELAER*    NOT AVBL
VALPARAISO     SUNNY     76  59  55 SE6       30.23S
$$

LMZ740>746-251700-
SOUTHERN LAKE MICHIGAN

STATION/POSITION TIME  SKY/WX   TEMP WIND        PRES    VSBY
                                AIR  DIR/SP/G
                 (UTC)          (F)  (DEG/KT/KT) (MB)    (MI)
HARRISON CRIB    1540            72  150/ 13/ 14   N/A
BURNHAM HARBOR   1600            76                N/A
CALUMET HARBOR   1530            74  150/  8/ 15 1022.2F
BURNS HARBOR     1540            74  170/  8/ 13 1023.4F
MICHIGAN CITY    1540            71  130/ 11/ 13   N/A
$$

ABBREVIATIONS USED IN REMARKS
   TC - TEMPERATURE IN CELSIUS
  WCI - WIND CHILL INDEX
   HX - HEAT INDEX
  VSB - VISIBILITY
$$




USA.gov is the U.S. government's official web portal to all federal, state and local government web resources and services.